Flag for United Kingdom Weather past 2 weeks in Liverpool, England, United Kingdom

Now
52 °F

Passing clouds.


Feels Like: 50 °F
Forecast: 39 / 56 °F
Wind: 6 mph from North

Location: Liverpool Airport


UV Index: 3 (Moderate)

Visibility: N/A


Pressure: 30.21 "Hg

Humidity: 54%

Dew point: 36 °F

Location of LiverpoolLocation

Historic Weather in Liverpool

°F

Liverpool temperature yesterday

Maximum temperature yesterday: 54 °F (at 1:20 AM)
Minimum temperature yesterday: 46 °F (at 9:20 PM)
Average temperature yesterday: 50 °F

Past Weeks' High & Low Weather Summary

 TemperatureHumidityPressure
High61 °F (Apr 6, 12:20 PM)100% (Apr 4, 5:20 AM)30.45 "Hg (Apr 4, 5:20 AM)
Low39 °F (Apr 15, 6:50 AM)48% (Apr 15, 2:50 PM)29.56 "Hg (Apr 3, 4:20 PM)
Average51 °F77%30.03 "Hg
* Reported Apr 3 11:20 AM — Apr 18 11:50 AM, Liverpool, Weather by CustomWeather, © 2014

Note: Actual official high and low records may vary slightly from our data, if they occured in-between our weather recording intervals... More about our weather records

Advertising

Historic Weather Conditions — Data for Previous 24 hours

 ConditionsComfort  
Time TempWeatherWind HumidityBarometerVisibility
11:50 AM
Apr 18
52 °FPassing clouds.6 mph50%30.21 "HgN/A
11:20 AM50 °FPassing clouds.7 mph54%30.21 "HgN/A
10:20 AM46 °FPassing clouds.9 mph62%30.21 "HgN/A
9:50 AM46 °FPassing clouds.9 mph62%30.21 "HgN/A
9:20 AM46 °FPassing clouds.8 mph66%30.21 "HgN/A
8:50 AM46 °FPassing clouds.8 mph66%30.21 "HgN/A
8:20 AM45 °FSunny.7 mph81%30.18 "Hg10 mi
7:50 AM43 °FSunny.8 mph81%30.18 "Hg10 mi
7:20 AM41 °FSunny.9 mph87%30.18 "Hg10 mi
6:50 AM39 °FClear.6 mph93%30.18 "Hg10 mi
6:20 AM39 °FPassing clouds.5 mph93%30.15 "HgN/A
5:50 AM39 °FClear.6 mph93%30.15 "Hg10 mi
5:20 AM41 °FClear.5 mph87%30.15 "Hg10 mi
4:50 AM43 °FClear.5 mph87%30.15 "Hg10 mi
4:20 AM43 °FClear.5 mph87%30.15 "Hg10 mi
3:50 AM43 °FClear.6 mph87%30.15 "Hg10 mi
3:20 AM45 °FClear.6 mph81%30.15 "Hg10 mi
2:50 AM45 °FClear.5 mph81%30.15 "Hg10 mi
2:20 AM45 °FClear.7 mph81%30.12 "Hg10 mi
1:50 AM45 °FClear.7 mph81%30.12 "Hg10 mi
1:20 AM45 °FClear.8 mph81%30.12 "Hg10 mi
12:20 AM46 °FClear.14 mph82%30.12 "Hg10 mi
11:50 PM
Apr 17
46 °FClear.15 mph82%30.12 "Hg10 mi
11:20 PM46 °FClear.12 mph76%30.12 "Hg10 mi
10:50 PM46 °FClear.10 mph82%30.12 "Hg10 mi
10:20 PM46 °FClear.13 mph76%30.12 "Hg10 mi
9:50 PM46 °FClear.12 mph76%30.12 "Hg10 mi
9:20 PM46 °FClear.15 mph76%30.09 "Hg10 mi
8:50 PM48 °FSunny.14 mph76%30.09 "Hg10 mi
8:20 PM48 °FPassing clouds.13 mph82%30.09 "HgN/A
7:50 PM48 °FPassing clouds.12 mph87%30.09 "HgN/A
7:20 PM48 °FMixture of precip. Broken clouds.14 mph94%30.09 "HgN/A
6:50 PM48 °FLight rain. Broken clouds.18 mph94%30.09 "Hg4 mi
5:50 PM52 °FScattered clouds.25 mph77%30.09 "HgN/A
5:20 PM52 °FPartly sunny.22 mph77%30.07 "HgN/A
4:50 PM54 °FPassing clouds.21 mph72%30.07 "HgN/A
4:20 PM54 °FPassing clouds.22 mph72%30.07 "HgN/A
3:50 PM52 °FPassing clouds.24 mph72%30.09 "HgN/A
3:20 PM52 °FPassing clouds.23 mph72%30.09 "HgN/A
2:20 PM52 °FPassing clouds.22 mph72%30.09 "HgN/A
1:50 PM52 °FPassing clouds.20 mph72%30.09 "HgN/A
1:20 PM50 °FScattered clouds.20 mph76%30.09 "HgN/A
Weather by CustomWeather, © 2014

See weather overview